Flight Track Log - Related Links

Times and Time Zones

All times are in EDT time to prevent confusion due to time zone crossing. See the SWA286 flight status page for this flight to view local times or setup timezone preferences in your user account.

Time Position Orientation Groundspeed Altitude Reporting Facility
EDT Latitude Longitude Course Direction KTS MPH feet Rate Location/Type
03:15PM 40.8478 -73.1206 221° Southwest 143 165 3,700  Level Boston Center
03:15PM 40.8339 -73.0272 101° East 107 123 7,100 2,186 Climbing Boston Center
03:16PM 40.8094 -72.9064 105° East 254 292 8,000 750 Climbing Boston Center
03:17PM 40.7869 -72.7964 105° East 288 331 8,600 1,587 Climbing Boston Center
03:18PM 40.7539 -72.6867 112° Southeast 305 351 11,200 3,174 Climbing Boston Center
03:19PM 40.6600 -72.6453 162° South 322 371 15,000 3,479 Climbing Boston Center
03:20PM 40.6542 -72.6239 221° Southwest  Level FlightAware Approximate
03:20PM 40.5869 -72.6997 210° Southwest 296 341 18,100  Level Boston Center
03:21PM 40.5139 -72.7867 222° Southwest 299 344 21,500 3,124 Climbing Boston Center
03:22PM 40.4322 -72.8789 221° Southwest 352 405 24,400 2,864 Climbing Boston Center
03:24PM 40.3506 -72.9711 221° Southwest 380 437 27,800 1,479 Climbing Boston Center
03:25PM 40.2481 -73.0872 221° Southwest 400 460 28,000 60 Climbing Boston Center
03:27PM 40.0419 -73.3178 221° Southwest 426 490 28,000  Level Washington Center
03:28PM 39.9542 -73.4208 222° Southwest 426 490 28,000  Level Washington Center
03:29PM 39.8642 -73.5181 220° Southwest 426 490 28,000  Level Washington Center
03:30PM 39.7764 -73.6153 220° Southwest 426 490 28,000  Level Washington Center
03:31PM 39.6797 -73.7014 214° Southwest 426 490 28,000  Level Washington Center
03:32PM 39.5619 -73.7583 200° South 426 490 28,000 -250 Level Washington Center
03:33PM 39.4481 -73.8178 202° Southwest 437 503 27,500 -1,300 Descending Washington Center
03:34PM 39.3325 -73.8878 205° Southwest 442 509 25,400 -2,050 Descending Washington Center
03:35PM 39.2672 -73.9964 232° Southwest 403 464 23,400 -2,000 Descending Washington Center
03:36PM 39.2042 -74.1050 233° Southwest 389 448 21,400 -2,000 Descending Washington Center
03:37PM 39.1386 -74.2133 232° Southwest 389 448 19,400 -1,600 Descending Washington Center
03:38PM 39.0772 -74.3108 231° Southwest 376 433 18,200 -1,100 Descending Washington Center
03:39PM 39.0178 -74.4081 232° Southwest 361 415 17,200 -850 Descending Washington Center
03:40PM 38.9603 -74.5025 232° Southwest 349 402 16,500 -650 Descending Washington Center
03:41PM 38.9239 -74.6125 247° West 326 375 15,900 -300 Descending Washington Center
03:42PM 38.9039 -74.7247 257° West 326 375 15,900 50 Level Washington Center
03:43PM 38.8836 -74.8369 257° West 326 375 16,000 -50 Climbing Washington Center
03:44PM 38.8594 -74.9519 255° West 326 375 15,800 -600 Descending Washington Center
03:45PM 38.8392 -75.0667 257° West 331 381 14,800 -900 Descending Washington Center
03:46PM 38.8186 -75.1814 257° West 331 381 14,000 -400 Descending Washington Center
03:47PM 38.8044 -75.2881 260° West 331 381 14,000  Level Washington Center
03:48PM 38.7983 -75.4000 266° West 321 369 14,000  Level Washington Center
03:49PM 38.7922 -75.5117 266° West 321 369 14,000  Level Washington Center
03:50PM 38.7842 -75.6208 265° West 321 369 14,000  Level Washington Center
03:51PM 38.7778 -75.7328 266° West 316 364 14,000 -500 Level Washington Center
03:52PM 38.7714 -75.8419 266° West 311 358 13,000 -1,000 Descending Washington Center
03:53PM 38.7628 -75.9511 264° West 311 358 12,000 -1,000 Descending Washington Center
03:54PM 38.7561 -76.0494 265° West 301 346 11,000 -750 Descending Washington Center
03:55PM 38.7911 -76.1322 298° West 273 314 10,500 -1,050 Descending Washington Center
03:56PM 38.8033 -76.2256 280° West 266 306 8,900 -1,600 Descending Washington Center
03:57PM 38.8006 -76.3189 268° West 261 300 7,300 -1,050 Descending Washington Center
03:58PM 38.8042 -76.4094 273° West 261 300 6,800 -1,011 Descending Washington Center
03:59PM 38.8333 -76.4333 327° Northwest 278 320 5,800 -1,685 Descending Potomac TRACON
04:00PM 38.9167 -76.4833 335° Northwest 269 310 4,300 -1,100 Descending Potomac TRACON
04:01PM 38.9667 -76.5167 333° Northwest 245 282 3,600 -678 Descending Potomac TRACON
04:01PM 39.0167 -76.5500 333° Northwest 214 246 3,000 -678 Descending Potomac TRACON
04:02PM 39.0667 -76.5833 333° Northwest 199 229 2,300 -850 Descending Potomac TRACON
04:03PM 39.1167 -76.6167 333° Northwest 166 191 1,300 -843 Descending Potomac TRACON
04:04PM 39.1500 -76.6500 322° Northwest 133 153 600 -689 Descending Potomac TRACON
04:06PM 39.1667 -76.6667 308° West  Level FlightAware Approximate
04:13PM 39.1754 -76.6683 308° West  Level Estimated
04:14PM 39.1754 -76.6683 308° West  Level Estimated
04:15PM 39.1754 -76.6683 308° West  Level Estimated
04:16PM 39.1754 -76.6683 308° West  Level Estimated
04:17PM 39.1754 -76.6683 308° West  Level Estimated
04:18PM 39.1754 -76.6683 308° West  Level Estimated
04:19PM 39.1754 -76.6683 308° West  Level Estimated

Login

Don't have an account? Register now (free) for customized features, flight alerts, and more!